Lapse_Rate
6.3 6.5 6.5 6.5 6.5 6.5 6.5 6.5 6.5 6.5 6.5 6.5 6.5 6.5 6.5 4.4 4.0 4.3 3.3 2.6 2.5 3.5 0.8 -0.5 -0.7 -1.7 -1.7 -2.4 -2.4 -2.3 -2.1 -2.2 -1.9 -1.4 -0.0 1.2 1.6 1.9 1.7 2.2 1.4 1.8 1.5 1.3
6.5 6.5 6.5 6.5 6.5 6.5 6.5 6.5 6.5 6.5 6.5 6.5 6.5 6.5 6.5 5.7 5.6 4.4 4.1 3.1 2.9 0.9 1.2 0.3 -0.7 -1.6 -2.3 -3.0 -3.0 -2.7 -2.5 -2.4 -2.1 -1.8 0.2 2.8 1.9 2.7 2.5 1.4 0.8 0.6 0.2 0.3
6.5 6.5 6.4 6.5 6.5 6.5 6.5 6.5 6.5 6.5 6.5 6.5 6.5 6.5 6.5 6.4 5.7 5.2 4.5 4.1 3.6 1.5 1.2 0.5 -0.5 -1.5 -2.8 -3.4 -3.7 -2.9 -2.8 -2.4 -2.1 -1.7 1.8 4.7 4.1 3.0 2.8 1.4 0.5 -0.1 -0.3 -0.5
6.5 6.3 6.5 6.5 6.5 6.5 6.5 6.5 6.5 6.5 6.5 6.5 6.5 6.5 6.5 6.5 6.5 6.4 5.4 3.1 1.7 1.7 1.3 0.5 -0.4 -1.5 -2.5 -3.7 -3.9 -3.3 -2.5 -2.1 -1.2 -1.6 1.1 3.7 3.6 2.3 1.6 1.3 0.5 -0.6 -1.0 -0.7
6.5 6.5 6.5 6.5 6.5 6.5 6.5 6.5 6.5 6.5 6.5 6.5 6.5 6.5 6.5 6.5 6.5 6.5 5.9 4.2 2.6 2.0 1.2 0.1 -0.8 -1.6 -2.6 -3.4 -3.7 -3.0 -2.4 -2.4 -2.4 -1.6 -0.5 0.4 1.5 1.8 1.4 0.8 0.3 0.1 -0.8 -1.6
6.5 6.2 6.4 6.5 6.5 6.5 6.5 6.5 6.5 6.5 6.5 6.5 6.5 6.5 6.5 6.5 6.5 6.5 6.1 4.8 3.0 1.9 0.9 0.0 -1.0 -1.7 -2.7 -3.0 -2.9 -2.6 -2.4 -2.7 -3.0 -2.8 -2.1 -1.2 -0.5 0.9 0.9 0.2 -0.9 -1.8 -2.6 -3.0
6.5 6.5 6.5 6.3 6.5 6.5 6.5 6.5 6.5 6.5 6.5 6.5 6.5 6.5 6.5 6.5 6.5 6.4 6.4 4.5 3.0 2.1 0.5 -0.7 -1.5 -1.6 -1.9 -2.2 -2.2 -1.9 -2.4 -2.6 -3.1 -3.4 -3.4 -3.1 -2.7 -2.5 -2.5 -2.8 -3.1 -3.4 -3.8 -4.1
6.5 6.5 6.5 6.5 6.5 6.5 6.5 6.5 6.5 6.5 6.5 6.5 6.5 6.5 6.5 6.5 5.5 5.3 5.2 3.7 3.2 2.5 1.1 -0.1 -0.7 -1.1 -1.7 -2.1 -2.5 -2.5 -2.3 -2.4 -3.2 -3.8 -4.0 -4.1 -3.8 -4.0 -4.1 -4.1 -4.3 -4.4 -4.3 -4.4
6.5 6.5 6.5 6.5 6.5 6.5 6.5 6.5 6.5 6.5 6.5 6.5 6.5 6.5 6.5 6.5 6.5 5.7 4.4 3.7 3.7 2.4 1.2 0.2 -1.1 -1.9 -2.0 -2.6 -2.9 -2.9 -2.8 -2.7 -3.1 -3.8 -4.5 -4.7 -4.7 -4.6 -4.7 -4.7 -4.7 -4.8 -4.3 -2.9
6.5 6.5 6.5 6.5 6.4 6.5 6.5 6.5 6.5 6.5 6.5 6.5 6.5 6.5 6.5 6.5 6.5 6.5 6.2 4.5 2.9 2.0 0.6 -1.0 -1.8 -2.5 -2.9 -3.1 -3.4 -3.8 -3.8 -3.9 -3.9 -3.6 -3.8 -4.3 -4.5 -4.6 -4.7 -4.7 -4.7 -4.4 -4.1 -3.6
6.5 6.5 6.5 6.5 6.5 6.5 6.5 6.5 6.5 6.5 6.5 6.5 6.5 6.5 6.5 6.5 6.5 6.5 5.6 3.5 2.0 0.7 -0.1 -1.0 -1.9 -2.0 -2.4 -3.0 -3.4 -3.9 -4.1 -3.8 -3.8 -4.1 -4.1 -4.4 -4.4 -4.4 -4.5 -4.6 -4.2 -4.1 -3.9 -3.8
6.5 6.5 6.5 6.5 6.5 6.5 6.5 6.5 6.5 6.5 6.5 6.5 6.5 6.5 6.5 6.5 6.2 5.1 4.4 3.6 2.2 1.1 0.0 -0.9 -1.4 -2.3 -3.5 -4.1 -4.2 -4.4 -4.2 -3.8 -3.5 -3.8 -3.9 -4.2 -4.3 -4.2 -4.2 -4.1 -4.1 -3.9 -3.6 -3.6
6.5 6.5 6.5 6.5 6.5 6.5 6.5 6.5 6.5 6.5 6.5 6.5 6.5 6.5 6.5 5.8 5.6 4.5 4.4 4.0 2.3 1.1 0.4 -1.1 -2.1 -3.1 -3.5 -3.7 -3.9 -4.1 -3.8 -3.2 -3.1 -3.2 -3.6 -4.0 -4.1 -4.1 -4.0 -3.7 -3.3 -3.1 -3.1 -3.0
6.3 6.5 6.5 6.5 6.5 6.5 6.5 6.5 6.5 6.5 6.5 6.5 6.5 6.5 6.5 6.5 6.5 5.9 4.8 3.5 2.3 1.4 1.1 -0.0 -1.2 -2.0 -2.5 -2.8 -3.2 -3.9 -3.8 -3.1 -2.7 -2.7 -3.0 -2.9 -3.2 -3.1 -3.1 -2.9 -2.8 -2.5 -2.1 -2.0
6.5 6.5 6.5 6.5 6.5 6.5 6.5 6.5 6.5 6.5 6.5 6.5 6.5 6.5 6.5 6.5 6.5 5.6 4.0 3.9 4.1 2.6 1.8 0.2 -0.6 -1.9 -3.4 -4.0 -4.4 -4.3 -3.8 -2.9 -2.7 -2.8 -2.7 -2.6 -2.2 -2.5 -2.2 -1.8 -1.5 -1.3 -1.1 -1.1
6.5 6.5 6.5 6.5 6.5 6.5 6.5 6.5 6.5 6.5 6.5 6.5 6.5 6.5 6.5 5.3 4.1 4.2 3.7 3.5 3.4 2.9 2.3 1.7 0.8 -0.5 -1.7 -2.7 -3.8 -4.1 -3.8 -3.2 -2.7 -2.4 -2.1 -2.0 -1.4 -1.3 -1.0 -0.5 -0.4 -0.1 -0.1 0.4
6.5 6.5 6.5 6.5 6.5 6.5 6.5 6.5 6.5 6.5 6.5 6.5 6.5 6.5 6.4 6.4 5.8 4.3 3.4 3.0 3.1 2.8 2.5 1.8 1.4 0.5 -1.1 -2.9 -3.3 -4.2 -4.1 -3.3 -2.4 -1.7 -1.3 -1.0 -0.7 -0.4 -0.3 0.0 0.4 0.8 0.4 0.2
6.5 6.5 6.5 6.5 6.5 6.5 6.5 6.5 6.5 6.5 6.5 6.5 6.5 6.5 6.2 5.6 4.1 3.8 3.6 3.5 3.2 2.6 1.8 0.4 -1.2 -1.3 -2.1 -4.7 -5.9 -5.9 -3.6 -2.6 -1.6 -1.3 -0.7 -0.5 -0.1 -0.0 0.3 0.8 0.8 1.2 1.5 1.8
6.5 6.5 6.5 6.5 6.5 6.5 6.5 6.5 6.5 6.5 6.5 6.5 6.5 6.5 5.2 4.1 5.0 3.9 2.4 2.0 2.0 0.5 -1.8 -3.7 -5.5 -4.9 -6.3 -6.6 -6.1 -5.7 -4.2 -2.8 -1.8 -1.4 -0.8 0.2 1.1 1.3 1.3 1.7 1.6 2.2 3.1 1.8
6.5 6.5 6.5 6.5 6.5 6.5 6.5 6.5 4.6 6.1 6.5 5.7 5.4 6.1 5.3 5.1 6.5 6.5 4.0 1.0 -0.9 -3.0 -4.9 -4.9 -7.2 -7.5 -7.6 -7.8 -6.0 -4.5 -3.4 -2.2 -1.7 -0.8 0.1 0.9 1.6 1.9 2.1 2.4 2.6 2.8 3.4 2.6
6.5 6.5 6.5 6.5 6.5 6.5 6.5 5.9 5.0 6.5 6.5 3.6 3.2 3.2 3.7 6.4 4.0 2.3 0.6 -0.6 -2.2 -3.6 -6.0 -8.4 -9.2 -8.8 -8.7 -7.2 -5.1 -4.1 -3.0 -2.0 -1.3 -0.5 0.3 1.1 1.7 1.8 2.3 2.3 2.6 2.9 2.3 2.0
6.5 6.5 6.5 6.5 6.5 6.5 4.3 6.2 6.5 6.0 4.5 3.1 2.6 2.8 2.8 1.1 1.2 0.2 -1.5 -1.0 -2.8 -4.2 -5.7 -6.4 -7.1 -7.0 -7.4 -4.7 -3.0 -2.3 -2.0 -1.7 -0.7 0.2 1.0 1.3 1.4 2.2 2.2 2.3 2.3 1.9 1.5 1.1
6.5 6.5 6.5 6.5 6.5 5.7 3.0 3.6 1.6 1.4 2.3 3.4 2.9 1.3 0.8 1.9 2.2 1.4 -0.8 -2.4 -3.0 -4.3 -5.6 -6.1 -6.0 -5.6 -5.5 -4.3 -2.0 -2.0 -2.3 -1.3 -0.4 0.5 0.9 1.4 1.6 1.9 2.3 1.4 0.6 1.0 1.1 1.3
6.5 3.6 6.5 6.5 6.5 6.0 3.9 2.2 1.4 1.3 1.3 1.2 0.5 2.0 1.1 1.7 0.5 0.2 -1.3 -3.0 -4.2 -4.8 -5.1 -5.4 -5.0 -4.8 -4.3 -4.2 -2.0 -0.9 -0.6 -0.3 0.3 0.7 1.1 0.9 0.8 0.9 1.2 0.8 0.9 0.8 0.6 0.4
5.2 5.8 6.5 6.5 6.2 3.3 3.1 2.3 2.5 1.7 0.2 0.9 0.7 0.8 0.3 0.4 0.2 -0.7 -1.2 -2.7 -4.3 -5.0 -5.4 -4.8 -4.2 -4.1 -4.3 -3.3 -2.0 -1.1 -0.6 0.2 0.7 1.0 1.0 0.9 1.3 -0.0 0.2 0.5 0.6 0.6 0.0 -0.0
4.7 6.5 6.5 6.5 3.2 3.0 4.1 2.5 -0.4 0.5 0.9 0.3 -0.2 -2.1 -3.2 -2.1 -1.2 -2.5 -2.8 -3.8 -4.4 -5.0 -4.9 -4.6 -4.3 -3.6 -3.3 -2.1 -1.6 -1.0 0.1 0.8 0.9 0.9 0.5 0.8 -0.2 -0.6 -0.4 -0.0 -0.7 2.2 2.3 2.6
Wind_Speed
2 4 8 10 6 4 5 3 4 3 3 5 6 7 10 11 7 8 9 8 7 3 5 6 6 6 6 8 9 8 8 7 5 3 2 3 3 3 5 13 17 17 15 15
3 6 7 4 5 3 0 1 3 1 1 2 4 10 11 10 10 11 13 9 8 7 5 5 6 7 8 6 7 7 7 7 5 3 2 1 3 5 8 12 17 16 16 15
6 4 10 6 5 6 4 5 2 1 2 2 4 8 5 6 11 9 7 7 6 14 10 6 5 6 6 6 7 6 7 7 6 7 2 5 4 4 5 6 6 12 14 15
4 5 7 5 6 6 6 6 5 3 3 3 3 5 5 5 6 2 6 6 9 11 8 6 6 5 5 3 6 7 7 8 8 8 5 7 4 3 4 5 6 8 13 14
7 4 5 4 5 4 4 4 6 4 2 3 1 1 7 3 6 3 5 7 8 8 8 7 6 5 4 5 6 6 7 7 7 8 6 4 7 6 4 5 7 8 10 14
5 1 5 8 3 5 5 5 5 4 3 3 8 7 5 3 4 3 4 5 7 8 7 5 5 4 5 6 6 6 7 6 6 7 8 7 7 5 5 5 5 4 4 6
3 2 1 2 6 1 3 5 2 3 1 6 1 4 6 6 3 7 12 9 8 7 7 6 6 4 4 5 4 4 6 5 5 7 7 7 7 7 7 5 4 4 3 3
7 5 8 5 6 6 7 5 5 7 5 3 2 6 5 5 3 1 5 8 8 6 6 6 6 5 5 4 5 4 4 3 4 6 7 6 6 4 4 5 4 3 3 3
6 5 0 1 4 9 5 5 5 4 3 2 4 5 8 2 5 5 7 7 5 6 7 7 7 6 6 5 5 6 5 3 4 5 5 6 5 6 5 5 4 3 3 4
6 3 2 2 3 2 5 7 2 2 2 4 3 3 4 2 4 3 6 7 8 6 6 7 7 7 5 5 4 5 5 5 5 5 4 5 5 5 5 5 5 5 4 5
3 4 2 5 7 9 4 3 3 4 4 3 1 4 5 2 3 8 8 8 8 9 9 7 6 6 6 5 6 6 5 5 5 5 5 6 5 5 5 5 4 4 5 6
2 3 3 5 2 4 3 5 6 4 4 3 3 4 1 0 4 7 8 6 5 6 8 7 7 7 7 7 6 6 5 5 5 5 5 5 5 5 5 4 4 5 5 8
5 4 2 2 3 3 4 4 4 4 2 5 4 4 1 7 7 6 6 6 7 9 8 8 7 9 9 8 7 7 6 6 5 5 5 5 5 5 5 4 4 5 5 6
11 4 5 5 2 5 5 6 7 6 4 3 7 3 5 4 3 4 4 7 8 7 7 6 7 10 9 9 9 7 7 6 6 5 5 5 5 4 4 4 4 5 6 6
6 5 6 3 5 4 4 11 15 15 13 10 3 7 7 9 6 7 7 3 2 7 8 9 10 9 8 9 8 7 7 7 7 7 6 5 5 5 4 4 4 4 5 5
8 2 3 1 3 1 3 6 7 6 4 7 8 13 8 9 6 7 8 8 8 9 9 9 8 8 10 12 11 10 10 8 8 7 7 6 5 5 4 4 4 6 6 7
8 6 3 3 1 2 6 7 7 5 6 8 8 10 4 7 7 8 8 8 9 10 9 8 8 8 9 9 11 11 10 9 9 8 7 6 6 5 5 5 5 6 8 7
7 5 3 3 2 2 5 2 8 15 13 11 8 6 11 7 7 6 7 8 9 7 6 7 6 7 3 5 7 10 10 9 9 8 7 6 6 6 5 5 6 5 6 7
5 5 3 4 4 5 4 4 7 8 11 12 11 13 7 5 2 6 9 5 6 4 3 4 5 2 5 7 9 11 10 9 8 8 7 6 6 6 5 6 6 5 6 6
4 4 4 2 5 8 5 8 6 4 11 10 11 11 9 5 4 4 5 4 5 3 2 3 2 1 6 5 9 11 10 9 8 7 7 6 6 5 5 4 4 3 4 5
2 2 7 4 3 8 8 5 6 5 7 8 8 8 6 6 7 4 5 4 4 3 2 2 3 3 2 4 8 8 8 7 7 8 8 8 7 6 5 4 4 4 4 6
8 6 4 3 2 13 9 3 12 14 3 6 6 6 7 7 6 6 8 7 6 6 3 4 4 3 1 5 8 8 8 8 8 8 8 7 7 4 5 6 3 5 5 6
3 7 6 10 8 4 7 10 10 3 5 5 5 7 8 7 6 7 7 8 8 8 5 4 6 6 3 3 6 9 7 9 9 9 8 7 7 5 5 6 6 4 4 4
4 2 3 4 8 10 6 7 6 6 8 8 7 7 7 8 9 9 6 6 7 8 8 6 8 7 5 3 5 7 10 9 9 9 8 7 7 7 5 5 4 3 3 3
5 8 6 5 11 2 7 9 11 11 7 7 7 8 11 8 9 8 6 7 8 8 7 8 8 7 7 6 7 8 9 10 9 8 7 6 5 6 5 4 4 4 3 4
6 8 8 9 6 6 10 10 8 12 12 13 11 6 6 8 8 4 6 5 8 9 8 7 7 8 7 8 8 7 8 9 10 9 7 6 5 5 4 5 3 9 8 7
Wind_Direction
163 115 204 198 154 117 131 180 231 236 231 152 220 259 264 274 288 272 265 247 237 154 117 81 65 46 50 41 42 30 25 4 9 355 355 23 62 63 55 56 51 47 44 41
69 220 221 211 209 203 208 190 265 40 347 147 270 262 252 245 248 224 233 232 231 130 121 89 67 53 49 47 41 32 23 9 359 345 323 59 110 76 77 66 56 45 46 40
171 238 200 191 194 193 194 177 199 68 348 290 341 288 270 273 244 232 216 202 193 160 146 116 85 68 57 51 46 41 25 13 6 347 341 106 89 72 64 54 57 42 45 45
229 251 178 176 201 151 178 196 158 121 56 241 41 288 298 272 297 215 201 138 125 130 122 123 117 90 74 61 59 49 32 21 19 5 28 60 82 99 63 77 77 58 43 44
228 209 183 173 184 150 194 171 173 142 141 13 212 233 273 281 286 223 124 125 121 119 126 129 127 123 108 72 62 54 48 35 19 30 36 54 84 84 83 76 79 64 45 39
202 230 179 186 123 152 152 90 54 65 83 300 205 175 274 225 213 118 124 130 133 133 131 129 131 130 90 67 64 59 56 39 31 42 44 58 68 79 80 66 66 52 46 33
156 254 246 169 108 109 128 115 53 2 212 232 120 171 262 277 244 179 169 164 160 149 145 155 145 121 105 95 82 76 65 56 46 56 57 60 67 70 73 67 67 61 42 27
162 197 189 192 173 169 176 178 158 194 191 236 79 219 247 264 306 31 136 135 138 153 155 166 164 168 150 132 112 101 94 84 70 70 67 63 66 73 70 68 69 66 70 51
149 229 310 151 138 148 184 192 170 99 20 60 221 287 308 121 52 88 123 114 132 169 181 182 179 181 178 169 162 154 140 111 75 79 82 76 75 75 78 70 69 60 45 76
186 115 220 149 108 85 166 150 109 60 156 242 271 270 237 308 220 117 129 157 193 198 199 198 195 189 186 182 171 162 157 149 131 110 90 83 82 80 82 78 78 73 63 59
159 108 169 150 214 171 148 177 179 141 161 178 191 255 215 253 193 163 190 202 198 204 212 209 201 195 185 180 186 181 164 150 132 119 119 107 96 87 78 77 76 77 76 66
154 81 179 191 337 248 169 173 165 143 225 239 142 267 98 340 159 163 191 216 233 234 225 215 199 196 194 194 192 187 174 161 162 140 125 108 100 90 83 78 79 81 77 64
153 126 174 121 297 359 198 206 169 130 95 206 153 251 76 109 101 115 141 177 210 225 227 212 201 206 204 202 193 185 176 174 156 137 124 111 106 104 101 98 86 76 78 79
131 171 207 197 151 130 198 189 200 190 208 162 221 220 269 273 141 188 280 253 243 242 244 220 223 219 209 202 195 179 176 167 150 131 121 116 115 116 116 110 94 83 83 90
118 199 189 141 133 135 201 214 213 216 226 230 192 220 232 275 276 247 239 260 268 274 271 240 235 224 209 204 188 175 165 157 147 137 131 130 128 122 116 105 95 88 85 80
163 183 167 335 358 211 222 220 207 218 203 249 242 258 231 254 253 273 287 286 289 280 270 270 251 233 218 207 194 172 165 156 143 139 138 134 127 122 113 103 95 104 94 88
177 136 125 231 293 73 317 213 201 203 206 201 223 229 249 250 250 255 261 259 261 269 274 278 265 254 236 201 174 173 155 143 140 137 139 138 135 131 126 114 108 108 99 91
150 113 94 161 37 283 236 334 216 214 226 220 245 261 240 235 248 258 250 248 267 269 280 299 304 293 246 136 127 130 136 139 137 137 139 139 136 127 121 115 111 106 113 104
132 124 110 141 196 305 278 218 169 169 245 230 229 248 238 234 167 270 236 219 235 245 264 272 295 316 114 121 136 133 133 134 135 137 133 134 140 137 129 131 123 122 130 123
74 77 130 122 158 215 232 204 163 102 257 228 204 230 242 136 251 243 224 207 217 239 285 301 45 41 115 123 132 133 137 137 136 138 132 124 127 128 123 112 107 102 108 113
96 38 184 175 208 279 241 234 116 145 240 205 195 217 203 185 212 182 152 212 211 212 193 48 56 102 104 110 122 121 124 129 130 124 126 126 126 122 120 112 113 119 119 113
162 150 179 116 112 262 178 66 178 223 125 158 190 210 220 230 253 209 208 219 200 200 155 145 134 123 96 129 124 132 129 134 131 131 127 126 127 128 125 114 99 105 109 105
206 183 179 184 209 215 197 205 222 162 213 213 198 219 211 225 242 242 221 202 197 187 172 157 151 141 120 115 138 138 143 139 133 130 131 131 123 116 118 127 126 121 116 123
259 151 192 91 243 219 212 237 244 194 223 224 218 208 194 229 232 231 210 202 188 175 177 164 156 154 156 139 131 139 143 138 137 136 141 139 132 120 119 125 126 129 131 127
192 147 182 254 271 52 236 227 226 234 244 258 244 229 222 208 237 223 222 204 189 178 164 168 173 163 156 138 136 142 143 144 141 139 139 133 134 126 131 120 133 132 121 139
186 194 189 220 211 171 248 243 199 216 230 231 224 236 227 193 223 187 224 189 176 175 161 165 163 155 155 149 146 145 150 152 146 146 147 148 144 140 143 142 133 137 142 123